H1 CPF 2 NER 2023 10 19 9 292 01 glonass139 H2 1808601 9139 43687 2023 10 19 0 0 0 2023 10 22 23 45 0 900 1 1 0 0 0 1 H9 10 0 60236 0.00000 0 5444197.097 -9806685.092 22929822.832 10 0 60236 900.00000 0 8130091.465 -9036925.001 22445151.429 10 0 60236 1800.00000 0 10780297.874 -8481381.915 21525482.166 10 0 60236 2700.00000 0 13326651.291 -8139249.978 20188574.411 10 0 60236 3600.00000 0 15703424.226 -7997694.905 18460263.579 10 0 60236 4500.00000 0 17849852.741 -8032533.756 16373970.820 10 0 60236 5400.00000 0 19712469.339 -8209404.974 13970066.628 10 0 60236 6300.00000 0 21247146.372 -8485379.924 11295099.501 10 0 60236 7200.00000 0 22420765.164 -8810948.543 8400903.444 10 0 60236 8100.00000 0 23212441.233 -9132295.862 5343600.639 10 0 60236 9000.00000 0 23614254.131 -9393773.545 2182517.826 10 0 60236 9900.00000 0 23631450.936 -9540462.021 -1020962.909 10 0 60236 10800.00000 0 23282114.376 -9520714.461 -4204596.738 10 0 60236 11700.00000 0 22596309.103 -9288574.259 -7306488.670 10 0 60236 12600.00000 0 21614741.676 -8805962.595 -10266301.972 10 0 60236 13500.00000 0 20386990.481 -8044542.142 -13026438.266 10 0 60236 14400.00000 0 18969380.132 -6987176.461 -15533165.552 10 0 60236 15300.00000 0 17422590.055 -5628921.679 -17737671.423 10 0 60236 16200.00000 0 15809098.249 -3977506.782 -19597020.276 10 0 60236 17100.00000 0 14190568.197 -2053280.528 -21074995.357 10 0 60236 18000.00000 0 12625289.225 111374.446 -22142808.832 10 0 60236 18900.00000 0 11165778.254 2473137.146 -22779665.832 10 0 60236 19800.00000 0 9856643.829 4979308.711 -22973171.425 10 0 60236 20700.00000 0 8732802.159 7569773.514 -22719572.543 10 0 60236 21600.00000 0 7818119.787 10179279.589 -22023830.261 10 0 60236 22500.00000 0 7124539.380 12739943.709 -20899521.091 10 0 60236 23400.00000 0 6651724.613 15183876.806 -19368569.310 10 0 60236 24300.00000 0 6387238.076 17445820.397 -17460815.694 10 0 60236 25200.00000 0 6307243.566 19465684.140 -15213431.168 10 0 60236 26100.00000 0 6377701.896 21190878.720 -12670187.078 10 0 60236 27000.00000 0 6556008.438 22578346.886 -9880596.578 10 0 60236 27900.00000 0 6793001.928 23596208.192 -6898944.295 10 0 60236 28800.00000 0 7035258.384 24224949.261 -3783223.715 10 0 60236 29700.00000 0 7227571.988 24458110.651 -594003.590 10 0 60236 30600.00000 0 7315517.015 24302442.681 2606753.952 10 0 60236 31500.00000 0 7247981.655 23777524.974 5756899.973 10 0 60236 32400.00000 0 6979566.017 22914867.066 8795306.061 10 0 60236 33300.00000 0 6472742.635 21756529.161 11663048.719 10 0 60236 34200.00000 0 5699688.051 20353322.056 14304547.801 10 0 60236 35100.00000 0 4643708.162 18762662.638 16668637.202 10 0 60236 36000.00000 0 3300197.246 17046175.297 18709547.700 10 0 60236 36900.00000 0 1677090.168 15267139.821 20387783.706 10 0 60236 37800.00000 0 -205211.563 13487892.163 21670878.046 10 0 60236 38700.00000 0 -2314437.430 11767285.962 22534011.267 10 0 60236 39600.00000 0 -4607545.225 10158319.796 22960484.561 10 0 60236 40500.00000 0 -7032273.479 8706027.919 22942038.054 10 0 60236 41400.00000 0 -9529085.918 7445721.142 22479008.943 10 0 60236 42300.00000 0 -12033428.664 6401650.021 21580326.636 10 0 60236 43200.00000 0 -14478208.084 5586145.012 20263344.891 10 0 60236 44100.00000 0 -16796388.012 4999268.705 18553513.648 10 0 60236 45000.00000 0 -18923599.770 4628994.128 16483896.051 10 0 60236 45900.00000 0 -20800657.623 4451901.395 14094538.952 10 0 60236 46800.00000 0 -22375875.742 4434363.487 11431707.858 10 0 60236 47700.00000 0 -23607090.429 4534171.476 8547000.001 10 0 60236 48600.00000 0 -24463303.219 4702530.982 5496351.736 10 0 60236 49500.00000 0 -24925875.826 4886345.834 2338958.700 10 0 60236 50400.00000 0 -24989226.297 5030692.436 -863870.680 10 0 60236 51300.00000 0 -24660996.516 5081379.957 -4049906.186 10 0 60236 52200.00000 0 -23961683.292 4987487.407 -7157207.958 10 0 60236 53100.00000 0 -22923747.895 4703769.285 -10125335.666 10 0 60236 54000.00000 0 -21590241.003 4192826.727 -12896530.527 10 0 60236 54900.00000 0 -20013000.586 3426950.808 -15416846.402 10 0 60236 55800.00000 0 -18250498.451 2389558.436 -17637207.140 10 0 60236 56700.00000 0 -16365426.078 1076158.416 -19514368.918 10 0 60236 57600.00000 0 -14422121.369 -505194.788 -21011768.301 10 0 60236 58500.00000 0 -12483944.681 -2333980.368 -22100239.105 10 0 60236 59400.00000 0 -10610714.453 -4377821.755 -22758583.861 10 0 60236 60300.00000 0 -8856310.106 -6593604.194 -22973988.697 10 0 60236 61200.00000 0 -7266542.658 -8929053.508 -22742273.498 10 0 60236 62100.00000 0 -5877382.022 -11324710.820 -22067972.590 10 0 60236 63000.00000 0 -4713614.723 -13716221.234 -20964244.412 10 0 60236 63900.00000 0 -3787987.542 -16036841.140 -19452612.079 10 0 60236 64800.00000 0 -3100871.915 -18220059.574 -17562539.991 10 0 60236 65700.00000 0 -2640461.889 -20202224.161 -15330854.899 10 0 60236 66600.00000 0 -2383495.838 -21925061.870 -12801022.928 10 0 60236 67500.00000 0 -2296469.968 -23337989.226 -10022296.966 10 0 60236 68400.00000 0 -2337290.825 -24400115.475 -7048751.412 10 0 60236 69300.00000 0 -2457295.488 -25081855.108 -3938223.645 10 0 60236 70200.00000 0 -2603552.641 -25366082.765 -751183.415 10 0 60236 71100.00000 0 -2721345.962 -25248782.814 2450447.231 10 0 60236 72000.00000 0 -2756733.741 -24739167.361 5604499.874 10 0 60236 72900.00000 0 -2659075.712 -23859258.792 8649767.619 10 0 60236 73800.00000 0 -2383419.738 -22642955.503 11527191.215 10 0 60236 74700.00000 0 -1892647.217 -21134621.029 14181000.312 10 0 60236 75600.00000 0 -1159286.588 -19387256.530 16559788.036 10 0 60236 76500.00000 0 -166918.443 -17460333.675 18617498.643 10 0 60236 77400.00000 0 1088886.933 -15417378.740 20314309.919 10 0 60236 78300.00000 0 2600139.148 -13323408.589 21617394.336 10 0 60236 79200.00000 0 4346522.912 -11242324.852 22501545.322 10 0 60236 80100.00000 0 6296015.572 -9234373.974 22949657.600 10 0 60236 81000.00000 0 8406002.230 -7353777.672 22953053.231 10 0 60236 81900.00000 0 10624843.225 -5646631.030 22511647.660 10 0 60236 82800.00000 0 12893830.216 -4149154.403 21633952.845 10 0 60236 83700.00000 0 15149451.064 -2886370.556 20336917.285 10 0 60236 84600.00000 0 17325870.913 -1871261.087 18645605.513 10 0 60236 85500.00000 0 19357527.658 -1104436.479 16592722.456 10 0 60237 0.00000 0 21181734.818 -574333.011 14217990.998 10 0 60237 900.00000 0 22741185.111 -257927.700 11567392.299 10 0 60237 1800.00000 0 23986248.360 -121941.834 8692285.679 10 0 60237 2700.00000 0 24876970.998 -124481.541 5648419.885 10 0 60237 3600.00000 0 25384690.684 -217047.068 2494857.231 10 0 60237 4500.00000 0 25493198.757 -346825.605 -707170.133 10 0 60237 5400.00000 0 25199400.679 -459170.574 -3895449.555 10 0 60237 6300.00000 0 24513445.833 -500162.028 -7007999.490 10 0 60237 7200.00000 0 23458320.295 -419139.044 -9984279.312 10 0 60237 8100.00000 0 22068918.832 -171095.855 -12766373.151 10 0 60237 9000.00000 0 20390634.495 281160.997 -15300123.944 10 0 60237 9900.00000 0 18477524.639 965187.207 -17536194.855 10 0 60237 10800.00000 0 16390130.196 1897485.715 -19431036.696 10 0 60237 11700.00000 0 14193039.654 3082563.534 -20947741.974 10 0 60237 12600.00000 0 11952300.013 4512501.772 -22056768.504 10 0 60237 13500.00000 0 9732783.299 6167058.414 -22736518.285 10 0 60237 14400.00000 0 7595618.961 8014300.917 -22973760.219 10 0 60237 15300.00000 0 5595799.591 10011743.123 -22763888.484 10 0 60237 16200.00000 0 3780059.847 12107939.716 -22111011.550 10 0 60237 17100.00000 0 2185116.825 14244472.064 -21027870.200 10 0 60237 18000.00000 0 836344.781 16358242.653 -19535586.299 10 0 60237 18900.00000 0 -253061.388 18383982.282 -17663247.267 10 0 60237 19800.00000 0 -1082400.138 20256865.107 -15447334.552 10 0 60237 20700.00000 0 -1663243.113 21915121.927 -12931007.441 10 0 60237 21600.00000 0 -2018691.771 23302542.188 -10163256.466 10 0 60237 22500.00000 0 -2182143.930 24370759.787 -7197943.293 10 0 60237 23400.00000 0 -2195623.965 25081226.858 -4092746.330 10 0 60237 24300.00000 0 -2107748.875 25406792.993 -908033.174 10 0 60237 25200.00000 0 -1971417.685 25332824.035 2294317.544 10 0 60237 26100.00000 0 -1841323.128 24857814.072 5452121.367 10 0 60237 27000.00000 0 -1771391.878 23993465.744 8504096.364 10 0 60237 27900.00000 0 -1812262.219 22764236.327 11391050.885 10 0 60237 28800.00000 0 -2008906.200 21206369.437 14057027.593 10 0 60237 29700.00000 0 -2398496.789 19366453.662 16450381.850 10 0 60237 30600.00000 0 -3008609.994 17299568.865 18524774.141 10 0 60237 31500.00000 0 -3855837.613 15067097.826 20240058.109 10 0 60237 32400.00000 0 -4944868.896 12734294.323 21563048.046 10 0 60237 33300.00000 0 -6268079.866 10367708.434 22468152.097 10 0 60237 34200.00000 0 -7805647.882 8032575.333 22937859.980 10 0 60237 35100.00000 0 -9526187.380 5790274.948 22963076.724 10 0 60237 36000.00000 0 -11387881.280 3695966.674 22543296.603 10 0 60237 36900.00000 0 -13340062.086 1796495.985 21686614.195 10 0 60237 37800.00000 0 -15325178.273 128658.513 20409572.261 10 0 60237 38700.00000 0 -17281065.508 -1282107.516 18736848.915 10 0 60237 39600.00000 0 -19143429.493 -2422547.056 16700789.298 10 0 60237 40500.00000 0 -20848438.190 -3291898.681 14340789.817 10 0 60237 41400.00000 0 -22335316.115 -3901677.245 11702545.645 10 0 60237 42300.00000 0 -23548832.985 -4274938.231 8837174.935 10 0 60237 43200.00000 0 -24441582.710 -4445054.846 5800235.719 10 0 60237 44100.00000 0 -24975957.036 -4454059.378 2650653.720 10 0 60237 45000.00000 0 -25125730.265 -4350618.836 -550418.547 10 0 60237 45900.00000 0 -24877187.642 -4187730.560 -3740789.364 10 0 60237 46800.00000 0 -24229748.989 -4020235.576 -6858438.824 10 0 60237 47700.00000 0 -23196060.032 -3902255.516 -9842729.247 10 0 60237 48600.00000 0 -21801546.493 -3884662.445 -12635590.765 10 0 60237 49500.00000 0 -20083448.653 -4012689.753 -15182658.299 10 0 60237 50400.00000 0 -18089376.148 -4323786.511 -17434336.952 10 0 60237 51300.00000 0 -15875443.119 -4845807.370 -19346774.431 10 0 60237 52200.00000 0 -13504061.524 -5595615.957 -20882720.992 10 0 60237 53100.00000 0 -11041484.948 -6578162.101 -22012259.746 10 0 60237 54000.00000 0 -8555205.624 -7786073.166 -22713392.865 10 0 60237 54900.00000 0 -6111313.459 -9199777.895 -22972472.187 10 0 60237 55800.00000 0 -3771927.404 -10788158.620 -22784465.781 10 0 60237 56700.00000 0 -1592806.187 -12509705.250 -22153055.378 10 0 60237 57600.00000 0 378762.184 -14314123.251 -21090562.820 10 0 60237 58500.00000 0 2105704.622 -16144328.495 -19617707.080 10 0 60237 59400.00000 0 3562468.919 -17938745.515 -17763196.703 10 0 60237 60300.00000 0 4735838.004 -19633812.757 -15563165.740 10 0 60237 61200.00000 0 5625219.883 -21166589.607 -13060464.399 10 0 60237 62100.00000 0 6242402.774 -22477355.539 -10303818.535 10 0 60237 63000.00000 0 6610787.613 -23512092.121 -7346874.707 10 0 60237 63900.00000 0 6764132.099 -24224743.405 -4247149.973 10 0 60237 64800.00000 0 6744861.134 -24579159.746 -1064907.422 10 0 60237 65700.00000 0 6602016.682 -24550643.455 2138020.045 10 0 60237 66600.00000 0 6388935.188 -24127031.661 5299434.178 10 0 60237 67500.00000 0 6160751.941 -23309271.309 8357980.172 10 0 60237 68400.00000 0 5971838.767 -22111462.728 11254336.058 10 0 60237 69300.00000 0 5873283.889 -20560370.520 13932359.464 10 0 60237 70200.00000 0 5910520.608 -18694422.779 16340169.806 10 0 60237 71100.00000 0 6121204.829 -16562240.857 18431145.456 10 0 60237 72000.00000 0 6533430.693 -14220761.229 20164817.375 10 0 60237 72900.00000 0 7164359.185 -11733027.569 21507642.914 10 0 60237 73800.00000 0 8019317.184 -9165744.420 22433645.942 10 0 60237 74700.00000 0 9091404.832 -6586693.377 22924911.940 10 0 60237 75600.00000 0 10361627.965 -4062117.879 22971929.438 10 0 60237 76500.00000 0 11799550.748 -1654183.834 22573771.849 10 0 60237 77400.00000 0 13364442.160 581380.038 21738116.472 10 0 60237 78300.00000 0 15006869.638 2597365.696 20481100.252 10 0 60237 79200.00000 0 16670674.708 4356808.005 18827014.600 10 0 60237 80100.00000 0 18295249.472 5834275.261 16807844.411 10 0 60237 81000.00000 0 19818020.079 7016675.284 14462659.153 10 0 60237 81900.00000 0 21177034.451 7903544.187 11836866.655 10 0 60237 82800.00000 0 22313546.603 8506806.222 8981342.912 10 0 60237 83700.00000 0 23174489.563 8850015.084 5951453.730 10 0 60237 84600.00000 0 23714733.120 8967108.710 2805986.400 10 0 60237 85500.00000 0 23899030.885 8900730.091 -393988.328 10 0 60238 0.00000 0 23703573.880 8700185.119 -3586301.774 10 0 60238 900.00000 0 23117084.071 8419123.893 -6708898.842 10 0 60238 1800.00000 0 22141400.787 8113044.277 -9701047.222 10 0 60238 2700.00000 0 20791533.638 7836723.583 -12504525.798 10 0 60238 3600.00000 0 19095178.439 7641688.216 -15064764.180 10 0 60238 4500.00000 0 17091715.365 7573829.283 -17331912.030 10 0 60238 5400.00000 0 14830730.401 7671266.163 -19261816.454 10 0 60238 6300.00000 0 12370121.365 7962549.565 -20816887.824 10 0 60238 7200.00000 0 9773867.350 8465281.152 -21966836.766 10 0 60238 8100.00000 0 7109554.578 9185209.109 -22689267.683 10 0 60238 9000.00000 0 4445761.817 10115838.801 -22970117.174 10 0 60238 9900.00000 0 1849414.424 11238575.789 -22803928.755 10 0 60238 10800.00000 0 -616782.840 12523395.872 -22193958.620 10 0 60238 11700.00000 0 -2896727.456 13930014.486 -21152110.442 10 0 60238 12600.00000 0 -4943016.394 15409506.591 -19698700.605 10 0 60238 13500.00000 0 -6718672.192 16906309.077 -17862058.566 10 0 60238 14400.00000 0 -8198426.817 18360521.481 -15677970.253 10 0 60238 15300.00000 0 -9369510.867 19710408.067 -13188975.583 10 0 60238 16200.00000 0 -10231916.665 20894995.789 -10443534.057 10 0 60238 17100.00000 0 -10798125.957 21856658.524 -7495075.053 10 0 60238 18000.00000 0 -11092315.556 22543578.483 -4400951.851 10 0 60238 18900.00000 0 -11149076.303 22911981.017 -1221320.314 10 0 60238 19800.00000 0 -11011701.218 22928048.591 1982035.329 10 0 60238 20700.00000 0 -10730116.752 22569433.440 5146906.145 10 0 60238 21600.00000 0 -10358545.955 21826305.430 8211867.677 10 0 60238 22500.00000 0 -9953003.331 20701891.378 11117470.889 10 0 60238 23400.00000 0 -9568727.955 19212483.514 13807391.620 10 0 60238 24300.00000 0 -9257663.554 17386917.051 16229516.493 10 0 60238 25200.00000 0 -9066091.865 15265538.914 18336944.789 10 0 60238 26100.00000 0 -9032518.795 12898710.731 20088887.600 10 0 60238 27000.00000 0 -9185901.925 10344908.271 21451447.904 10 0 60238 27900.00000 0 -9544293.499 7668495.861 22398267.542 10 0 60238 28800.00000 0 -10113955.513 4937267.491 22911029.636 10 0 60238 29700.00000 0 -10888983.938 2219855.495 22979807.670 10 0 60238 30600.00000 0 -11851457.997 -416887.044 22603255.170 10 0 60238 31500.00000 0 -12972108.752 -2910423.136 21788632.603 10 0 60238 32400.00000 0 -14211479.853 -5204884.284 20551670.990 10 0 60238 33300.00000 0 -15521532.955 -7253142.375 18916274.371 10 0 60238 34200.00000 0 -16847631.798 -9018516.231 16914066.157 10 0 60238 35100.00000 0 -18130823.145 -10476042.996 14583787.127 10 0 60238 36000.00000 0 -19310320.044 -11613262.174 11970555.549 10 0 60238 36900.00000 0 -20326084.111 -12430480.151 9125002.630 10 0 60238 37800.00000 0 -21121398.956 -12940504.538 6102299.024 10 0 60238 38700.00000 0 -21645326.602 -13167859.621 2961090.451 10 0 60238 39600.00000 0 -21854943.073 -13147515.995 -237637.425 10 0 60238 40500.00000 0 -21717258.351 -12923188.043 -3431742.938 10 0 60238 41400.00000 0 -21210738.586 -12545271.237 -6559138.083 10 0 60238 42300.00000 0 -20326365.056 -12068506.725 -9558999.894 10 0 60238 43200.00000 0 -19068183.744 -11549472.397 -12372959.346 10 0 60238 44100.00000 0 -17453320.760 -11044007.190 -14946243.917 10 0 60238 45000.00000 0 -15511461.538 -10604678.392 -17228750.785 10 0 60238 45900.00000 0 -13283814.333 -10278399.965 -19176029.069 10 0 60238 46800.00000 0 -10821600.433 -10104303.481 -20750151.445 10 0 60238 47700.00000 0 -8184133.490 -10111952.596 -21920457.710 10 0 60238 48600.00000 0 -5436567.699 -10319977.269 -22664155.576 10 0 60238 49500.00000 0 -2647408.440 -10735186.142 -22966766.874 10 0 60238 50400.00000 0 114110.995 -11352195.091 -22822410.462 10 0 60238 51300.00000 0 2780677.498 -12153588.080 -22233916.352 10 0 60238 52200.00000 0 5289460.964 -13110603.835 -21212768.953 10 0 60238 53100.00000 0 7584485.402 -14184319.541 -19778880.579 10 0 60238 54000.00000 0 9618710.033 -15327281.680 -17960199.797 10 0 60238 54900.00000 0 11355734.375 -16485515.171 -15792162.348 10 0 60238 55800.00000 0 12771057.081 -17600825.844 -13316995.553 10 0 60238 56700.00000 0 13852837.248 -18613298.858 -10582890.056 10 0 60238 57600.00000 0 14602127.849 -19463887.313 -7643055.377 10 0 60238 58500.00000 0 15032573.259 -20096981.474 -4554678.211 10 0 60238 59400.00000 0 15169585.454 -20462849.875 -1377804.314 10 0 60238 60300.00000 0 15049035.468 -20519849.098 1825833.666 10 0 60238 61200.00000 0 14715516.997 -20236308.878 4994018.955 10 0 60238 62100.00000 0 14220257.019 -19592013.084 8065260.165 10 0 60238 63000.00000 0 13618762.810 -18579214.296 10979983.716 10 0 60238 63900.00000 0 12968305.618 -17203139.446 13681685.925 10 0 60238 64800.00000 0 12325347.613 -15481965.429 16118022.608 10 0 60238 65700.00000 0 11743020.737 -13446265.711 18241815.603 10 0 60238 66600.00000 0 11268763.397 -11137950.983 20011957.456 10 0 60238 67500.00000 0 10942213.995 -8608747.736 21394197.748 10 0 60238 68400.00000 0 10793449.162 -5918277.457 22361796.928 10 0 60238 69300.00000 0 10841640.087 -3131815.502 22896036.069 10 0 60238 70200.00000 0 11094182.729 -317821.495 22986573.617 10 0 60238 71100.00000 0 11546338.128 2454657.705 22631642.945 10 0 60238 72000.00000 0 12181397.847 5118606.277 21838087.190 10 0 60238 72900.00000 0 12971367.985 7611572.026 20621230.738 10 0 60238 73800.00000 0 13878143.732 9878009.776 19004589.372 10 0 60238 74700.00000 0 14855126.133 11871339.641 17019423.985 10 0 60238 75600.00000 0 15849214.273 13555635.779 14704145.479 10 0 60238 76500.00000 0 16803090.274 14906876.237 12103581.220 10 0 60238 77400.00000 0 17657701.952 15913702.290 9268116.129 10 0 60238 78300.00000 0 18354839.349 16577655.966 6252724.031 10 0 60238 79200.00000 0 18839696.875 16912885.937 3115907.201 10 0 60238 80100.00000 0 19063312.954 16945334.181 -81435.785 10 0 60238 81000.00000 0 18984783.505 16711437.586 -3277192.126 10 0 60238 81900.00000 0 18573154.953 16256399.320 -6409243.717 10 0 60238 82800.00000 0 17808915.664 15632103.091 -9416678.907 10 0 60238 83700.00000 0 16685021.170 14894758.598 -12240982.985 10 0 60238 84600.00000 0 15207408.324 14102378.141 -14827183.457 10 0 60238 85500.00000 0 13394975.020 13312191.645 -17124927.078 10 0 60239 0.00000 0 11279024.961 12578110.052 -19089466.793 10 0 60239 900.00000 0 8902198.154 11948344.643 -20682539.809 10 0 60239 1800.00000 0 6316933.691 11463284.453 -21873116.682 10 0 60239 2700.00000 0 3583524.453 11153720.722 -22638010.105 10 0 60239 3600.00000 0 767847.069 11039494.771 -22962328.674 10 0 60239 4500.00000 0 -2061139.672 11128626.289 -22839767.904 10 0 60239 5400.00000 0 -4834023.844 11416959.012 -22272732.666 10 0 60239 6300.00000 0 -7483587.614 11888338.770 -21272288.775 10 0 60239 7200.00000 0 -9947362.648 12515316.262 -19857944.724 10 0 60239 8100.00000 0 -12169987.639 13260344.634 -18057267.985 10 0 60239 9000.00000 0 -14105270.232 14077421.001 -15905343.438 10 0 60239 9900.00000 0 -15717868.031 14914102.159 -13444084.726 10 0 60239 10800.00000 0 -16984519.477 15713808.848 -10721412.160 10 0 60239 11700.00000 0 -17894774.397 16418320.737 -7790313.612 10 0 60239 12600.00000 0 -18451195.048 16970356.136 -4707807.125 10 0 60239 13500.00000 0 -18669020.949 17316126.957 -1533826.044 10 0 60239 14400.00000 0 -18575313.347 17407760.543 1669951.064 10 0 60239 15300.00000 0 -18207617.074 17205485.788 4841302.276 10 0 60239 16200.00000 0 -17612197.812 16679491.049 7918672.110 10 0 60239 17100.00000 0 -16841930.449 15811375.432 10842365.413 10 0 60239 18000.00000 0 -15953928.597 14595132.310 13555702.021 10 0 60239 18900.00000 0 -15007015.867 13037623.705 16006109.991 10 0 60239 19800.00000 0 -14059145.620 11158525.540 18146136.711 10 0 60239 20700.00000 0 -13164877.675 8989745.842 19934359.018 10 0 60239 21600.00000 0 -12373017.542 6574339.809 21336175.693 10 0 60239 22500.00000 0 -11724516.605 3964966.277 22324468.088 10 0 60239 23400.00000 0 -11250720.491 1221948.934 22880117.140 10 0 60239 24300.00000 0 -10972038.215 -1588978.356 22992367.743 10 0 60239 25200.00000 0 -10897087.122 -4399149.967 22659034.115 10 0 60239 26100.00000 0 -11022348.966 -7139569.420 21886542.567 10 0 60239 27000.00000 0 -11332351.332 -9743526.533 20689810.835 10 0 60239 27900.00000 0 -11800366.959 -12149123.896 19091965.916 10 0 60239 28800.00000 0 -12389602.064 -14301609.160 17123905.155 10 0 60239 29700.00000 0 -13054824.493 -16155417.501 14823708.083 10 0 60239 30600.00000 0 -13744364.030 -17675840.075 12235909.253 10 0 60239 31500.00000 0 -14402401.559 -18840249.638 9410645.042 10 0 60239 32400.00000 0 -14971451.283 -19638832.413 6402689.905 10 0 60239 33300.00000 0 -15394931.724 -20074795.686 3270399.925 10 0 60239 34200.00000 0 -15619716.935 -20164042.318 74583.660 10 0 60239 35100.00000 0 -15598559.766 -19934325.735 -3122678.019 10 0 60239 36000.00000 0 -15292284.031 -19423920.885 -6259240.034 10 0 60239 36900.00000 0 -14671651.692 -18679867.117 -9274105.249 10 0 60239 37800.00000 0 -13718824.743 -17755857.195 -12108616.467 10 0 60239 38700.00000 0 -12428358.384 -16709861.779 -14707604.380 10 0 60239 39600.00000 0 -10807681.757 -15601590.047 -17020468.332 10 0 60239 40500.00000 0 -8877044.300 -14489894.152 -19002168.187 10 0 60239 41400.00000 0 -6668928.261 -13430227.593 -20614107.399 10 0 60239 42300.00000 0 -4226950.609 -12472265.254 -21824889.665 10 0 60239 43200.00000 0 -1604299.094 -11657785.908 -22610934.134 10 0 60239 44100.00000 0 1138233.133 -11018906.742 -22956937.104 10 0 60239 45000.00000 0 3934532.947 -10576744.440 -22856171.139 10 0 60239 45900.00000 0 6715677.925 -10340559.185 -22310615.859 10 0 60239 46800.00000 0 9412568.019 -10307417.397 -21330917.905 10 0 60239 47700.00000 0 11958568.787 -10462387.008 -19936180.966 10 0 60239 48600.00000 0 14292056.372 -10779256.487 -18153590.062 10 0 60239 49500.00000 0 16358758.456 -11221746.613 -16017877.507 10 0 60239 50400.00000 0 18113794.021 -11745163.084 -13570641.190 10 0 60239 51300.00000 0 19523327.416 -12298419.366 -10859528.689 10 0 60239 52200.00000 0 20565768.502 -12826343.490 -7937303.482 10 0 60239 53100.00000 0 21232469.775 -13272170.489 -4860811.929 10 0 60239 54000.00000 0 21527892.656 -13580114.334 -1689871.710 10 0 60239 54900.00000 0 21469237.488 -13697910.003 1513896.072 10 0 60239 55800.00000 0 21085554.445 -13579217.670 4688267.735 10 0 60239 56700.00000 0 20416374.326 -13185787.085 7771626.986 10 0 60239 57600.00000 0 19509918.303 -12489290.507 10704160.155 10 0 60239 58500.00000 0 18420963.155 -11472746.747 13429013.347 10 0 60239 59400.00000 0 17208452.629 -10131476.279 15893389.228 10 0 60239 60300.00000 0 15932955.829 -8473547.086 18049562.679 10 0 60239 61200.00000 0 14654079.407 -6519692.333 19855796.341 10 0 60239 62100.00000 0 13427941.824 -4302702.843 21277139.277 10 0 60239 63000.00000 0 12304814.855 -1866319.080 22286094.394 10 0 60239 63900.00000 0 11327030.224 736332.106 22863142.740 10 0 60239 64800.00000 0 10527237.936 3444692.131 22997115.503 10 0 60239 65700.00000 0 9927088.138 6193036.938 22685407.251 10 0 60239 66600.00000 0 9536390.783 8912962.347 21934026.625 10 0 60239 67500.00000 0 9352787.571 11535987.031 20757483.583 10 0 60239 68400.00000 0 9361949.557 13996166.724 19178514.961 10 0 60239 69300.00000 0 9538292.099 16232612.572 17227652.971 10 0 60239 70200.00000 0 9846177.360 18191810.210 14942644.017 10 0 60239 71100.00000 0 10241554.328 19829644.028 12367727.950 10 0 60239 72000.00000 0 10673967.870 21113042.860 9552790.589 10 0 60239 72900.00000 0 11088852.691 22021178.615 6552404.893 10 0 60239 73800.00000 0 11430015.859 22546167.894 3424778.535 10 0 60239 74700.00000 0 11642203.067 22693246.813 230627.781 10 0 60239 75600.00000 0 11673639.855 22480411.415 -2968000.707 10 0 60239 76500.00000 0 11478439.772 21937538.573 -6108937.144 10 0 60239 77400.00000 0 11018776.580 21105024.093 -9131101.083 10 0 60239 78300.00000 0 10266727.319 20031995.270 -11975694.891 10 0 60239 79200.00000 0 9205706.672 18774173.193 -14587354.327 10 0 60239 80100.00000 0 7831430.339 17391475.136 -16915233.060 10 0 60239 81000.00000 0 6152364.959 15945458.417 -18913999.285 10 0 60239 81900.00000 0 4189643.844 14496713.774 -20544724.513 10 0 60239 82800.00000 0 1976450.422 13102318.510 -21775646.702 10 0 60239 83700.00000 0 -443106.204 11813456.915 -22582792.666 10 0 60239 84600.00000 0 -3015577.720 10673308.308 -22950447.446 10 0 60239 85500.00000 0 -5680159.690 9715291.593 -22871461.501 99